Time,TemperatureF,DewpointF,PressureIn,WindDirection,WindDirectionDegrees,WindSpeedMPH,WindSpeedGustMPH,Humidity,HourlyPrecipIn,Conditions,Clouds,dailyrainin,SoftwareType,DateUTC
2013-03-07 00:00:00,28.6,20.1,30.40,ESE,103,2.0,13.0,70,0.00,,,0.00,meteohub,2013-03-07 05:00:00,
2013-03-07 00:01:00,28.6,20.1,30.40,ESE,103,4.0,13.0,70,0.00,,,0.00,meteohub,2013-03-07 05:01:00,
2013-03-07 00:03:00,28.6,20.1,30.40,ESE,114,4.0,13.0,70,0.00,,,0.00,meteohub,2013-03-07 05:03:00,
2013-03-07 00:08:00,28.6,20.3,30.39,East,93,5.0,13.0,71,0.00,,,0.00,meteohub,2013-03-07 05:08:00,
2013-03-07 00:13:00,28.6,20.3,30.39,SE,128,4.0,13.0,71,0.00,,,0.00,meteohub,2013-03-07 05:13:00,
2013-03-07 00:18:00,28.4,20.1,30.39,SE,124,4.0,8.0,71,0.00,,,0.00,meteohub,2013-03-07 05:18:00,
2013-03-07 00:23:00,28.4,20.1,30.39,ESE,103,3.0,11.0,71,0.00,,,0.00,meteohub,2013-03-07 05:23:00,
2013-03-07 00:28:00,28.4,19.9,30.38,East,94,10.0,11.0,70,0.00,,,0.00,meteohub,2013-03-07 05:28:00,
2013-03-07 00:33:00,28.4,19.6,30.38,ESE,107,3.0,11.0,69,0.00,,,0.00,meteohub,2013-03-07 05:33:00,
2013-03-07 00:39:00,28.4,19.9,30.38,ESE,115,8.0,16.0,70,0.00,,,0.00,meteohub,2013-03-07 05:39:00,
2013-03-07 00:44:00,28.4,19.9,30.38,ENE,77,4.0,16.0,70,0.00,,,0.00,meteohub,2013-03-07 05:44:00,
2013-03-07 00:49:00,28.2,20.1,30.38,ENE,77,2.0,14.0,71,0.00,,,0.00,meteohub,2013-03-07 05:49:00,
2013-03-07 00:54:00,28.2,20.1,30.38,ESE,113,5.0,9.0,71,0.00,,,0.00,meteohub,2013-03-07 05:54:00,
2013-03-07 00:59:00,28.2,20.3,30.38,ENE,61,3.0,9.0,72,0.00,,,0.00,meteohub,2013-03-07 05:59:00,
2013-03-07 01:05:00,28.2,20.1,30.39,ENE,74,4.0,10.0,71,0.00,,,0.00,meteohub,2013-03-07 06:05:00,
2013-03-07 01:10:00,28.2,19.4,30.38,East,92,8.0,10.0,69,0.00,,,0.00,meteohub,2013-03-07 06:10:00,
2013-03-07 01:15:00,28.2,19.8,30.38,ESE,122,3.0,15.0,70,0.00,,,0.00,meteohub,2013-03-07 06:15:00,
2013-03-07 01:20:00,28.0,19.9,30.39,ESE,117,4.0,15.0,71,0.00,,,0.00,meteohub,2013-03-07 06:20:00,
2013-03-07 01:25:00,28.0,19.9,30.38,ESE,121,2.0,11.0,71,0.00,,,0.00,meteohub,2013-03-07 06:25:00,
2013-03-07 01:30:00,28.0,20.1,30.38,ESE,123,2.0,8.0,72,0.00,,,0.00,meteohub,2013-03-07 06:30:00,
2013-03-07 01:35:00,28.0,19.9,30.38,ESE,116,7.0,8.0,71,0.00,,,0.00,meteohub,2013-03-07 06:35:00,
2013-03-07 01:41:00,28.0,19.9,30.38,East,93,5.0,9.0,71,0.00,,,0.00,meteohub,2013-03-07 06:41:00,
2013-03-07 01:46:00,28.0,19.9,30.38,SE,144,3.0,9.0,71,0.00,,,0.00,meteohub,2013-03-07 06:46:00,
2013-03-07 01:51:00,27.9,19.4,30.38,ESE,114,5.0,9.0,70,0.00,,,0.00,meteohub,2013-03-07 06:51:00,
2013-03-07 01:56:00,27.9,19.8,30.38,ENE,78,9.0,11.0,71,0.00,,,0.00,meteohub,2013-03-07 06:56:00,
2013-03-07 02:01:00,27.9,19.9,30.38,SE,132,5.0,15.0,72,0.00,,,0.00,meteohub,2013-03-07 07:01:00,
2013-03-07 02:06:00,27.9,19.9,30.38,ESE,108,5.0,15.0,72,0.00,,,0.00,meteohub,2013-03-07 07:06:00,
2013-03-07 02:11:00,27.9,19.9,30.38,SE,127,3.0,15.0,72,0.00,,,0.00,meteohub,2013-03-07 07:11:00,
2013-03-07 02:17:00,27.9,19.9,30.39,East,100,3.0,12.0,72,0.00,,,0.00,meteohub,2013-03-07 07:17:00,
2013-03-07 02:22:00,27.9,19.9,30.39,ESE,114,3.0,12.0,72,0.00,,,0.00,meteohub,2013-03-07 07:22:00,
2013-03-07 02:27:00,27.9,19.8,30.40,ESE,119,4.0,12.0,71,0.00,,,0.00,meteohub,2013-03-07 07:27:00,
2013-03-07 02:32:00,27.9,19.9,30.40,ESE,106,5.0,11.0,72,0.00,,,0.00,meteohub,2013-03-07 07:32:00,
2013-03-07 02:37:00,27.9,19.9,30.40,ESE,107,1.0,11.0,72,0.00,,,0.00,meteohub,2013-03-07 07:37:00,
2013-03-07 02:42:00,27.9,19.9,30.41,ESE,109,3.0,10.0,72,0.00,,,0.00,meteohub,2013-03-07 07:42:00,
2013-03-07 02:47:00,27.9,19.9,30.41,SE,129,2.0,10.0,72,0.00,,,0.00,meteohub,2013-03-07 07:47:00,
2013-03-07 02:52:00,27.9,19.9,30.41,East,101,7.0,10.0,72,0.00,,,0.00,meteohub,2013-03-07 07:52:00,
2013-03-07 02:57:00,27.9,20.3,30.41,ESE,113,3.0,10.0,73,0.00,,,0.00,meteohub,2013-03-07 07:57:00,
2013-03-07 03:03:00,27.9,19.9,30.41,ESE,113,1.0,9.0,72,0.00,,,0.00,meteohub,2013-03-07 08:03:00,
2013-03-07 03:08:00,27.9,20.3,30.41,SE,126,2.0,9.0,73,0.00,,,0.00,meteohub,2013-03-07 08:08:00,
2013-03-07 03:16:00,27.9,20.3,30.41,East,98,2.0,8.0,73,0.00,,,0.00,meteohub,2013-03-07 08:16:00,
2013-03-07 03:22:00,27.9,19.9,30.41,East,89,3.0,9.0,72,0.00,,,0.00,meteohub,2013-03-07 08:22:00,
2013-03-07 03:27:00,27.9,19.9,30.41,ESE,107,4.0,12.0,72,0.00,,,0.00,meteohub,2013-03-07 08:27:00,
2013-03-07 03:32:00,27.7,19.8,30.41,ESE,123,3.0,12.0,72,0.00,,,0.00,meteohub,2013-03-07 08:32:00,
2013-03-07 03:37:00,27.7,19.8,30.41,East,96,7.0,12.0,72,0.00,,,0.00,meteohub,2013-03-07 08:37:00,
2013-03-07 03:42:00,27.7,20.1,30.41,SE,146,1.0,9.0,73,0.00,,,0.00,meteohub,2013-03-07 08:42:00,
2013-03-07 03:47:00,27.7,19.8,30.42,SE,127,2.0,11.0,72,0.00,,,0.00,meteohub,2013-03-07 08:47:00,
2013-03-07 03:52:00,27.7,20.1,30.42,ESE,117,7.0,11.0,73,0.00,,,0.00,meteohub,2013-03-07 08:52:00,
2013-03-07 03:57:00,27.7,20.1,30.42,East,101,0.0,9.0,73,0.00,,,0.00,meteohub,2013-03-07 08:57:00,
2013-03-07 04:03:00,27.7,20.1,30.41,ENE,75,0.0,9.0,73,0.00,,,0.00,meteohub,2013-03-07 09:03:00,
2013-03-07 04:08:00,27.7,20.1,30.41,SE,142,2.0,12.0,73,0.00,,,0.00,meteohub,2013-03-07 09:08:00,
2013-03-07 04:13:00,27.7,20.5,30.41,East,86,6.0,12.0,74,0.00,,,0.00,meteohub,2013-03-07 09:13:00,
2013-03-07 04:18:00,27.7,20.1,30.41,ENE,71,2.0,10.0,73,0.00,,,0.00,meteohub,2013-03-07 09:18:00,
2013-03-07 04:23:00,27.5,19.9,30.41,East,97,2.0,9.0,73,0.00,,,0.00,meteohub,2013-03-07 09:23:00,
2013-03-07 04:29:00,27.5,19.6,30.41,ESE,117,4.0,9.0,72,0.00,,,0.00,meteohub,2013-03-07 09:29:00,
2013-03-07 04:34:00,27.7,19.8,30.41,ESE,116,8.0,9.0,72,0.00,,,0.00,meteohub,2013-03-07 09:34:00,
2013-03-07 04:39:00,27.7,19.8,30.40,South,174,3.0,12.0,72,0.00,,,0.00,meteohub,2013-03-07 09:39:00,
2013-03-07 04:44:00,27.7,19.8,30.40,ESE,103,2.0,12.0,72,0.00,,,0.00,meteohub,2013-03-07 09:44:00,
2013-03-07 04:50:00,27.5,19.6,30.40,ESE,123,2.0,12.0,72,0.00,,,0.00,meteohub,2013-03-07 09:50:00,
2013-03-07 04:55:00,27.5,19.9,30.40,ESE,105,2.0,11.0,73,0.00,,,0.00,meteohub,2013-03-07 09:55:00,
2013-03-07 05:00:00,27.5,19.9,30.40,ESE,105,4.0,8.0,73,0.00,,,0.00,meteohub,2013-03-07 10:00:00,
2013-03-07 05:05:00,27.5,20.3,30.40,East,82,0.0,7.0,74,0.00,,,0.00,meteohub,2013-03-07 10:05:00,
2013-03-07 05:11:00,27.3,20.1,30.39,East,85,3.0,7.0,74,0.00,,,0.00,meteohub,2013-03-07 10:11:00,
2013-03-07 05:17:00,27.3,20.1,30.39,ESE,106,1.0,5.0,74,0.00,,,0.00,meteohub,2013-03-07 10:17:00,
2013-03-07 05:22:00,27.3,19.8,30.39,East,90,3.0,5.0,73,0.00,,,0.00,meteohub,2013-03-07 10:22:00,
2013-03-07 05:27:00,27.3,19.8,30.39,ENE,61,3.0,8.0,73,0.00,,,0.00,meteohub,2013-03-07 10:27:00,
2013-03-07 05:33:00,27.3,19.8,30.39,East,92,2.0,8.0,73,0.00,,,0.00,meteohub,2013-03-07 10:33:00,
2013-03-07 05:38:00,27.3,19.8,30.39,ENE,77,2.0,8.0,73,0.00,,,0.00,meteohub,2013-03-07 10:38:00,
2013-03-07 05:44:00,27.3,19.8,30.38,East,96,3.0,8.0,73,0.00,,,0.00,meteohub,2013-03-07 10:44:00,
2013-03-07 05:50:00,27.3,19.8,30.38,East,80,3.0,7.0,73,0.00,,,0.00,meteohub,2013-03-07 10:50:00,
2013-03-07 05:55:00,27.3,19.8,30.38,ESE,111,3.0,9.0,73,0.00,,,0.00,meteohub,2013-03-07 10:55:00,
2013-03-07 06:00:00,27.3,20.1,30.38,SE,135,2.0,9.0,74,0.00,,,0.00,meteohub,2013-03-07 11:00:00,
2013-03-07 06:07:00,27.1,20.3,30.38,ESE,113,1.0,9.0,75,0.00,,,0.00,meteohub,2013-03-07 11:07:00,
2013-03-07 06:12:00,27.1,20.3,30.38,East,101,2.0,6.0,75,0.00,,,0.00,meteohub,2013-03-07 11:12:00,
2013-03-07 06:17:00,27.1,20.7,30.38,ENE,70,1.0,6.0,76,0.00,,,0.00,meteohub,2013-03-07 11:17:00,
2013-03-07 06:22:00,27.1,20.7,30.38,ENE,74,1.0,7.0,76,0.00,,,0.00,meteohub,2013-03-07 11:22:00,
2013-03-07 06:27:00,27.1,20.7,30.38,ESE,117,3.0,10.0,76,0.00,,,0.00,meteohub,2013-03-07 11:27:00,
2013-03-07 06:32:00,27.1,20.8,30.38,East,86,1.0,10.0,77,0.00,,,0.00,meteohub,2013-03-07 11:32:00,
2013-03-07 06:37:00,27.1,20.8,30.38,East,86,0.0,10.0,77,0.00,,,0.00,meteohub,2013-03-07 11:37:00,
2013-03-07 06:42:00,27.1,20.8,30.38,East,83,0.0,6.0,77,0.00,,,0.00,meteohub,2013-03-07 11:42:00,
2013-03-07 06:47:00,27.1,20.8,30.39,ESE,106,2.0,4.0,77,0.00,,,0.00,meteohub,2013-03-07 11:47:00,
2013-03-07 06:53:00,27.1,21.2,30.39,SE,125,3.0,6.0,78,0.00,,,0.00,meteohub,2013-03-07 11:53:00,
2013-03-07 06:58:00,27.1,21.2,30.38,East,101,3.0,6.0,78,0.00,,,0.00,meteohub,2013-03-07 11:58:00,
2013-03-07 07:05:00,27.3,21.4,30.39,North,5,2.0,6.0,78,0.00,,,0.00,meteohub,2013-03-07 12:05:00,
2013-03-07 07:10:00,27.3,21.4,30.39,ESE,103,3.0,9.0,78,0.00,,,0.00,meteohub,2013-03-07 12:10:00,
2013-03-07 07:15:00,27.3,21.4,30.39,ESE,120,0.0,10.0,78,0.00,,,0.00,meteohub,2013-03-07 12:15:00,
2013-03-07 07:21:00,27.3,21.4,30.39,SE,129,2.0,10.0,78,0.00,,,0.00,meteohub,2013-03-07 12:21:00,
2013-03-07 07:26:00,27.3,21.4,30.39,ENE,72,4.0,10.0,78,0.00,,,0.00,meteohub,2013-03-07 12:26:00,
2013-03-07 07:31:00,27.3,21.4,30.40,ENE,72,4.0,13.0,78,0.00,,,0.00,meteohub,2013-03-07 12:31:00,
2013-03-07 07:37:00,27.3,21.4,30.39,SE,142,5.0,13.0,78,0.00,,,0.00,meteohub,2013-03-07 12:37:00,
2013-03-07 07:42:00,27.5,21.6,30.40,SE,126,2.0,13.0,78,0.00,,,0.00,meteohub,2013-03-07 12:42:00,
2013-03-07 07:47:00,27.5,21.6,30.39,East,84,3.0,10.0,78,0.00,,,0.00,meteohub,2013-03-07 12:47:00,
2013-03-07 07:52:00,27.5,21.2,30.40,NNE,24,4.0,9.0,77,0.00,,,0.00,meteohub,2013-03-07 12:52:00,
2013-03-07 07:57:00,27.5,21.2,30.39,NE,53,9.0,10.0,77,0.00,,,0.00,meteohub,2013-03-07 12:57:00,
2013-03-07 08:02:00,27.3,21.0,30.39,ENE,78,1.0,11.0,77,0.00,,,0.00,meteohub,2013-03-07 13:02:00,
2013-03-07 08:07:00,27.3,20.8,30.39,ENE,77,2.0,11.0,76,0.00,,,0.00,meteohub,2013-03-07 13:07:00,
2013-03-07 08:12:00,27.3,20.8,30.40,NNE,12,2.0,11.0,76,0.00,,,0.00,meteohub,2013-03-07 13:12:00,
2013-03-07 08:17:00,27.3,20.5,30.40,ENE,78,5.0,11.0,75,0.00,,,0.00,meteohub,2013-03-07 13:17:00,
2013-03-07 08:22:00,27.3,20.5,30.40,East,99,3.0,11.0,75,0.00,,,0.00,meteohub,2013-03-07 13:22:00,
2013-03-07 08:27:00,27.3,19.8,30.40,East,88,5.0,11.0,73,0.00,,,0.00,meteohub,2013-03-07 13:27:00,
2013-03-07 08:33:00,27.3,20.1,30.40,East,88,3.0,10.0,74,0.00,,,0.00,meteohub,2013-03-07 13:33:00,
2013-03-07 08:38:00,27.3,20.1,30.40,East,97,8.0,12.0,74,0.00,,,0.00,meteohub,2013-03-07 13:38:00,
2013-03-07 08:43:00,27.3,19.6,30.40,ESE,106,3.0,12.0,72,0.00,,,0.00,meteohub,2013-03-07 13:43:00,
2013-03-07 08:50:00,27.3,19.6,30.40,ENE,77,4.0,12.0,72,0.00,,,0.00,meteohub,2013-03-07 13:50:00,
2013-03-07 08:55:00,27.3,19.6,30.41,SSE,154,6.0,14.0,72,0.00,,,0.00,meteohub,2013-03-07 13:55:00,
2013-03-07 09:01:00,27.3,19.6,30.41,SE,125,5.0,14.0,72,0.00,,,0.00,meteohub,2013-03-07 14:01:00,
2013-03-07 09:06:00,27.7,19.8,30.41,ESE,108,7.0,14.0,72,0.00,,,0.00,meteohub,2013-03-07 14:06:00,
2013-03-07 09:12:00,27.7,19.8,30.41,ESE,102,5.0,13.0,72,0.00,,,0.00,meteohub,2013-03-07 14:12:00,
2013-03-07 09:17:00,27.9,19.9,30.41,SE,128,4.0,12.0,72,0.00,,,0.00,meteohub,2013-03-07 14:17:00,
2013-03-07 09:22:00,27.9,20.3,30.41,ESE,123,7.0,10.0,73,0.00,,,0.00,meteohub,2013-03-07 14:22:00,
2013-03-07 09:27:00,27.9,19.9,30.41,ESE,115,5.0,8.0,72,0.00,,,0.00,meteohub,2013-03-07 14:27:00,
2013-03-07 09:33:00,27.9,19.9,30.41,SE,139,7.0,13.0,72,0.00,,,0.00,meteohub,2013-03-07 14:33:00,
2013-03-07 09:38:00,27.9,20.3,30.41,SE,126,2.0,13.0,73,0.00,,,0.00,meteohub,2013-03-07 14:38:00,
2013-03-07 09:43:00,28.0,20.5,30.41,SE,136,7.0,13.0,73,0.00,,,0.00,meteohub,2013-03-07 14:43:00,
2013-03-07 09:48:00,27.9,19.9,30.41,SE,144,9.0,12.0,72,0.00,,,0.00,meteohub,2013-03-07 14:48:00,
2013-03-07 09:53:00,27.9,19.9,30.40,East,88,6.0,12.0,72,0.00,,,0.00,meteohub,2013-03-07 14:53:00,
2013-03-07 09:59:00,28.0,20.1,30.40,East,92,8.0,13.0,72,0.00,,,0.00,meteohub,2013-03-07 14:59:00,
2013-03-07 10:04:00,28.0,20.1,30.40,SE,127,5.0,13.0,72,0.00,,,0.00,meteohub,2013-03-07 15:04:00,
2013-03-07 10:09:00,28.2,20.3,30.40,East,87,2.0,13.0,72,0.00,,,0.00,meteohub,2013-03-07 15:09:00,
2013-03-07 10:14:00,28.4,20.5,30.40,ESE,123,5.0,9.0,72,0.00,,,0.00,meteohub,2013-03-07 15:14:00,
2013-03-07 10:19:00,28.2,20.3,30.40,ESE,107,5.0,9.0,72,0.00,,,0.00,meteohub,2013-03-07 15:19:00,
2013-03-07 10:25:00,28.2,20.7,30.40,SE,145,6.0,13.0,73,0.00,,,0.00,meteohub,2013-03-07 15:25:00,
2013-03-07 10:30:00,28.2,20.3,30.40,East,82,5.0,14.0,72,0.00,,,0.00,meteohub,2013-03-07 15:30:00,
2013-03-07 10:35:00,28.2,21.0,30.40,ESE,107,10.0,12.0,74,0.00,,,0.00,meteohub,2013-03-07 15:35:00,
2013-03-07 10:40:00,28.2,20.7,30.40,SE,126,4.0,12.0,73,0.00,,,0.00,meteohub,2013-03-07 15:40:00,
2013-03-07 10:45:00,28.6,21.0,30.40,ENE,72,5.0,13.0,73,0.00,,,0.00,meteohub,2013-03-07 15:45:00,
2013-03-07 10:52:00,28.6,21.0,30.39,ENE,65,4.0,11.0,73,0.00,,,0.00,meteohub,2013-03-07 15:52:00,
2013-03-07 10:57:00,28.8,21.2,30.39,ENE,68,2.0,11.0,73,0.00,,,0.00,meteohub,2013-03-07 15:57:00,
2013-03-07 11:02:00,28.8,21.2,30.40,ENE,69,5.0,11.0,73,0.00,,,0.00,meteohub,2013-03-07 16:02:00,
2013-03-07 11:07:00,28.8,21.2,30.39,ENE,78,9.0,9.0,73,0.00,,,0.00,meteohub,2013-03-07 16:07:00,
2013-03-07 11:12:00,28.6,21.4,30.39,NE,49,7.0,17.0,74,0.00,,,0.00,meteohub,2013-03-07 16:12:00,
2013-03-07 11:17:00,28.6,21.4,30.39,East,84,3.0,17.0,74,0.00,,,0.00,meteohub,2013-03-07 16:17:00,
2013-03-07 11:22:00,28.9,21.4,30.39,ENE,60,7.0,17.0,73,0.00,,,0.00,meteohub,2013-03-07 16:22:00,
2013-03-07 11:27:00,28.9,21.4,30.39,SE,146,2.0,12.0,73,0.00,,,0.00,meteohub,2013-03-07 16:27:00,
2013-03-07 11:32:00,28.9,21.0,30.39,East,98,7.0,12.0,72,0.00,,,0.00,meteohub,2013-03-07 16:32:00,
2013-03-07 11:38:00,28.9,21.0,30.39,ENE,76,10.0,12.0,72,0.00,,,0.00,meteohub,2013-03-07 16:38:00,
2013-03-07 11:43:00,28.9,21.0,30.39,ENE,63,5.0,15.0,72,0.00,,,0.00,meteohub,2013-03-07 16:43:00,
2013-03-07 11:48:00,28.9,21.4,30.38,ENE,63,7.0,15.0,73,0.00,,,0.00,meteohub,2013-03-07 16:48:00,
2013-03-07 11:53:00,29.1,21.6,30.38,East,80,7.0,15.0,73,0.00,,,0.00,meteohub,2013-03-07 16:53:00,
2013-03-07 11:59:00,29.3,21.7,30.38,NE,56,6.0,10.0,73,0.00,,,0.00,meteohub,2013-03-07 16:59:00,
2013-03-07 12:04:00,29.3,21.4,30.38,ENE,67,2.0,10.0,72,0.00,,,0.00,meteohub,2013-03-07 17:04:00,
2013-03-07 12:09:00,29.5,21.9,30.38,ENE,65,1.0,10.0,73,0.00,,,0.00,meteohub,2013-03-07 17:09:00,
2013-03-07 12:14:00,29.5,21.6,30.38,East,94,11.0,11.0,72,0.00,,,0.00,meteohub,2013-03-07 17:14:00,
2013-03-07 12:20:00,29.3,22.1,30.38,East,92,1.0,15.0,74,0.00,,,0.00,meteohub,2013-03-07 17:20:00,
2013-03-07 12:25:00,29.5,21.9,30.38,ENE,69,9.0,15.0,73,0.00,,,0.00,meteohub,2013-03-07 17:25:00,
2013-03-07 12:30:00,29.7,21.4,30.38,East,101,9.0,12.0,71,0.00,,,0.00,meteohub,2013-03-07 17:30:00,
2013-03-07 12:37:00,29.7,21.7,30.38,ENE,57,7.0,12.0,72,0.00,,,0.00,meteohub,2013-03-07 17:37:00,
2013-03-07 12:42:00,29.7,21.4,30.38,NE,47,10.0,11.0,71,0.00,,,0.00,meteohub,2013-03-07 17:42:00,
2013-03-07 12:47:00,29.7,21.7,30.38,NE,56,7.0,13.0,72,0.00,,,0.00,meteohub,2013-03-07 17:47:00,
2013-03-07 12:52:00,29.7,21.7,30.38,NE,45,3.0,13.0,72,0.00,,,0.00,meteohub,2013-03-07 17:52:00,
2013-03-07 12:57:00,29.7,22.1,30.38,ENE,63,8.0,13.0,73,0.00,,,0.00,meteohub,2013-03-07 17:57:00,
2013-03-07 13:02:00,29.5,21.9,30.37,ENE,63,4.0,14.0,73,0.00,,,0.00,meteohub,2013-03-07 18:02:00,
2013-03-07 13:07:00,29.7,21.7,30.37,East,82,3.0,15.0,72,0.00,,,0.00,meteohub,2013-03-07 18:07:00,
2013-03-07 13:12:00,29.7,21.7,30.38,NE,56,4.0,15.0,72,0.00,,,0.00,meteohub,2013-03-07 18:12:00,
2013-03-07 13:17:00,29.8,21.9,30.37,East,81,9.0,12.0,72,0.00,,,0.00,meteohub,2013-03-07 18:17:00,
2013-03-07 13:22:00,29.8,21.6,30.37,SE,128,2.0,12.0,71,0.00,,,0.00,meteohub,2013-03-07 18:22:00,
2013-03-07 13:27:00,29.8,21.9,30.36,ENE,76,5.0,9.0,72,0.00,,,0.00,meteohub,2013-03-07 18:27:00,
2013-03-07 13:35:00,29.8,21.6,30.37,ENE,74,4.0,11.0,71,0.00,,,0.00,meteohub,2013-03-07 18:35:00,
2013-03-07 13:40:00,30.0,22.1,30.36,NE,35,11.0,11.0,72,0.00,,,0.00,meteohub,2013-03-07 18:40:00,
2013-03-07 13:46:00,29.8,21.6,30.36,ENE,71,7.0,15.0,71,0.00,,,0.00,meteohub,2013-03-07 18:46:00,
2013-03-07 13:51:00,29.8,21.6,30.36,East,82,6.0,15.0,71,0.00,,,0.00,meteohub,2013-03-07 18:51:00,
2013-03-07 13:56:00,29.8,21.9,30.36,ENE,60,9.0,15.0,72,0.00,,,0.00,meteohub,2013-03-07 18:56:00,
2013-03-07 14:02:00,30.0,21.7,30.35,ENE,62,8.0,13.0,71,0.00,,,0.00,meteohub,2013-03-07 19:02:00,
2013-03-07 14:07:00,30.2,21.9,30.35,East,79,6.0,15.0,71,0.00,,,0.00,meteohub,2013-03-07 19:07:00,
2013-03-07 14:12:00,30.4,21.7,30.35,NE,40,10.0,15.0,70,0.00,,,0.00,meteohub,2013-03-07 19:12:00,
2013-03-07 14:17:00,30.4,21.7,30.35,ENE,64,9.0,15.0,70,0.00,,,0.00,meteohub,2013-03-07 19:17:00,
2013-03-07 14:22:00,30.4,22.1,30.35,ENE,57,10.0,14.0,71,0.00,,,0.00,meteohub,2013-03-07 19:22:00,
2013-03-07 14:27:00,30.4,21.7,30.35,ENE,75,8.0,14.0,70,0.00,,,0.00,meteohub,2013-03-07 19:27:00,
2013-03-07 14:33:00,30.4,21.7,30.35,ENE,67,9.0,14.0,70,0.00,,,0.00,meteohub,2013-03-07 19:33:00,
2013-03-07 14:39:00,30.6,21.9,30.34,East,82,7.0,12.0,70,0.00,,,0.00,meteohub,2013-03-07 19:39:00,
2013-03-07 14:44:00,30.7,22.5,30.34,East,96,3.0,11.0,71,0.00,,,0.00,meteohub,2013-03-07 19:44:00,
2013-03-07 14:52:00,30.7,22.1,30.34,ENE,62,9.0,13.0,70,0.00,,,0.00,meteohub,2013-03-07 19:52:00,
2013-03-07 14:57:00,30.7,22.1,30.34,East,88,8.0,13.0,70,0.00,,,0.00,meteohub,2013-03-07 19:57:00,
2013-03-07 15:02:00,30.9,22.6,30.33,ENE,74,9.0,13.0,71,0.00,,,0.00,meteohub,2013-03-07 20:02:00,
2013-03-07 15:07:00,30.9,21.9,30.33,NE,54,2.0,13.0,69,0.00,,,0.00,meteohub,2013-03-07 20:07:00,
2013-03-07 15:12:00,31.1,22.5,30.34,East,84,5.0,12.0,70,0.00,,,0.00,meteohub,2013-03-07 20:12:00,
2013-03-07 15:17:00,31.1,22.1,30.34,ENE,61,5.0,12.0,69,0.00,,,0.00,meteohub,2013-03-07 20:17:00,
2013-03-07 15:22:00,31.1,22.1,30.34,NE,53,4.0,11.0,69,0.00,,,0.00,meteohub,2013-03-07 20:22:00,
2013-03-07 15:27:00,31.3,22.6,30.33,ESE,123,7.0,13.0,70,0.00,,,0.00,meteohub,2013-03-07 20:27:00,
2013-03-07 15:32:00,31.3,22.3,30.33,East,101,10.0,13.0,69,0.00,,,0.00,meteohub,2013-03-07 20:32:00,
2013-03-07 15:37:00,31.1,22.5,30.33,East,98,5.0,18.0,70,0.00,,,0.00,meteohub,2013-03-07 20:37:00,
2013-03-07 15:42:00,31.1,22.8,30.33,East,80,8.0,18.0,71,0.00,,,0.00,meteohub,2013-03-07 20:42:00,
2013-03-07 15:47:00,30.9,22.3,30.33,East,81,2.0,18.0,70,0.00,,,0.00,meteohub,2013-03-07 20:47:00,
2013-03-07 15:52:00,30.9,22.6,30.33,ESE,114,3.0,11.0,71,0.00,,,0.00,meteohub,2013-03-07 20:52:00,
2013-03-07 16:00:00,30.9,23.0,30.33,ESE,112,10.0,12.0,72,0.00,,,0.00,meteohub,2013-03-07 21:00:00,
2013-03-07 16:05:00,30.7,22.8,30.33,SSW,196,7.0,11.0,72,0.00,,,0.00,meteohub,2013-03-07 21:05:00,
2013-03-07 16:10:00,30.9,23.0,30.33,SE,137,5.0,11.0,72,0.00,,,0.00,meteohub,2013-03-07 21:10:00,
2013-03-07 16:15:00,30.7,22.8,30.33,East,79,3.0,11.0,72,0.00,,,0.00,meteohub,2013-03-07 21:15:00,
2013-03-07 16:20:00,30.7,23.2,30.34,ESE,111,5.0,11.0,73,0.00,,,0.00,meteohub,2013-03-07 21:20:00,
2013-03-07 16:25:00,30.6,23.2,30.34,ENE,65,7.0,11.0,74,0.00,,,0.00,meteohub,2013-03-07 21:25:00,
2013-03-07 16:31:00,30.6,23.2,30.34,NE,53,3.0,11.0,74,0.00,,,0.00,meteohub,2013-03-07 21:31:00,
2013-03-07 16:36:00,30.6,23.2,30.34,ENE,65,5.0,11.0,74,0.00,,,0.00,meteohub,2013-03-07 21:36:00,
2013-03-07 16:41:00,30.6,23.2,30.34,NE,49,3.0,9.0,74,0.00,,,0.00,meteohub,2013-03-07 21:41:00,
2013-03-07 16:46:00,30.6,23.2,30.35,NNE,31,3.0,9.0,74,0.00,,,0.00,meteohub,2013-03-07 21:46:00,
2013-03-07 16:52:00,30.4,23.4,30.35,ESE,113,10.0,10.0,75,0.00,,,0.00,meteohub,2013-03-07 21:52:00,
2013-03-07 16:57:00,30.4,23.4,30.35,ESE,113,7.0,10.0,75,0.00,,,0.00,meteohub,2013-03-07 21:57:00,
2013-03-07 17:02:00,30.0,23.0,30.35,ENE,57,7.0,12.0,75,0.00,,,0.00,meteohub,2013-03-07 22:02:00,
2013-03-07 17:07:00,30.0,23.0,30.35,ESE,107,4.0,13.0,75,0.00,,,0.00,meteohub,2013-03-07 22:07:00,
2013-03-07 17:12:00,30.0,23.0,30.35,East,96,6.0,13.0,75,0.00,,,0.00,meteohub,2013-03-07 22:12:00,
2013-03-07 17:17:00,29.8,23.2,30.35,East,90,6.0,11.0,76,0.00,,,0.00,meteohub,2013-03-07 22:17:00,
2013-03-07 17:22:00,29.8,23.2,30.35,East,90,3.0,11.0,76,0.00,,,0.00,meteohub,2013-03-07 22:22:00,
2013-03-07 17:27:00,29.8,23.2,30.36,East,88,2.0,10.0,76,0.00,,,0.00,meteohub,2013-03-07 22:27:00,
2013-03-07 17:32:00,29.7,23.0,30.36,ENE,70,3.0,10.0,76,0.00,,,0.00,meteohub,2013-03-07 22:32:00,
2013-03-07 17:37:00,29.7,23.0,30.36,ENE,59,5.0,10.0,76,0.00,,,0.00,meteohub,2013-03-07 22:37:00,
2013-03-07 17:42:00,29.7,23.4,30.36,ENE,78,2.0,10.0,77,0.00,,,0.00,meteohub,2013-03-07 22:42:00,
2013-03-07 17:47:00,29.7,23.4,30.36,NE,51,0.0,8.0,77,0.00,,,0.00,meteohub,2013-03-07 22:47:00,
2013-03-07 17:52:00,29.7,23.4,30.35,South,182,1.0,8.0,77,0.00,,,0.00,meteohub,2013-03-07 22:52:00,
2013-03-07 17:57:00,29.7,23.4,30.36,East,93,6.0,10.0,77,0.00,,,0.00,meteohub,2013-03-07 22:57:00,
2013-03-07 18:02:00,29.7,23.4,30.35,ESE,120,3.0,11.0,77,0.00,,,0.00,meteohub,2013-03-07 23:02:00,
2013-03-07 18:07:00,29.7,23.4,30.35,ESE,107,0.0,11.0,77,0.00,,,0.00,meteohub,2013-03-07 23:07:00,
2013-03-07 18:12:00,29.5,23.5,30.35,ENE,75,9.0,11.0,78,0.00,,,0.00,meteohub,2013-03-07 23:12:00,
2013-03-07 18:17:00,29.5,23.2,30.36,ESE,116,5.0,10.0,77,0.00,,,0.00,meteohub,2013-03-07 23:17:00,
2013-03-07 18:22:00,29.5,23.5,30.36,SE,131,8.0,10.0,78,0.00,,,0.00,meteohub,2013-03-07 23:22:00,
2013-03-07 18:27:00,29.5,23.5,30.36,ESE,113,1.0,11.0,78,0.00,,,0.00,meteohub,2013-03-07 23:27:00,
2013-03-07 18:32:00,29.5,23.5,30.36,ESE,109,7.0,11.0,78,0.00,,,0.00,meteohub,2013-03-07 23:32:00,
2013-03-07 18:37:00,29.5,23.5,30.36,ENE,65,7.0,11.0,78,0.00,,,0.00,meteohub,2013-03-07 23:37:00,
2013-03-07 18:42:00,29.5,23.5,30.36,East,89,1.0,8.0,78,0.00,,,0.00,meteohub,2013-03-07 23:42:00,
2013-03-07 18:47:00,29.3,23.5,30.36,East,86,2.0,9.0,79,0.00,,,0.00,meteohub,2013-03-07 23:47:00,
2013-03-07 18:52:00,29.3,23.5,30.36,ENE,71,3.0,9.0,79,0.00,,,0.00,meteohub,2013-03-07 23:52:00,
2013-03-07 18:58:00,29.3,23.4,30.35,ENE,57,5.0,8.0,78,0.00,,,0.00,meteohub,2013-03-07 23:58:00,
2013-03-07 19:03:00,29.3,23.4,30.35,ESE,115,3.0,9.0,78,0.00,,,0.00,meteohub,2013-03-08 00:03:00,
2013-03-07 19:08:00,29.1,23.2,30.36,NE,53,0.0,9.0,78,0.00,,,0.00,meteohub,2013-03-08 00:08:00,
2013-03-07 19:13:00,29.1,23.2,30.36,East,96,3.0,9.0,78,0.00,,,0.00,meteohub,2013-03-08 00:13:00,
2013-03-07 19:18:00,29.1,23.2,30.35,SE,135,3.0,7.0,78,0.00,,,0.00,meteohub,2013-03-08 00:18:00,
2013-03-07 19:23:00,29.1,23.2,30.35,East,86,3.0,7.0,78,0.00,,,0.00,meteohub,2013-03-08 00:23:00,
2013-03-07 19:29:00,29.1,23.2,30.35,NNE,33,3.0,7.0,78,0.00,,,0.00,meteohub,2013-03-08 00:29:00,
2013-03-07 19:34:00,29.1,23.4,30.35,ENE,58,5.0,7.0,79,0.00,,,0.00,meteohub,2013-03-08 00:34:00,
2013-03-07 19:39:00,29.1,23.4,30.36,East,90,0.0,7.0,79,0.00,,,0.00,meteohub,2013-03-08 00:39:00,
2013-03-07 19:44:00,29.1,23.2,30.35,ESE,119,2.0,7.0,78,0.00,,,0.00,meteohub,2013-03-08 00:44:00,
2013-03-07 19:49:00,28.9,23.2,30.35,East,92,0.0,8.0,79,0.00,,,0.00,meteohub,2013-03-08 00:49:00,
2013-03-07 19:55:00,28.9,23.2,30.35,East,87,3.0,8.0,79,0.00,,,0.00,meteohub,2013-03-08 00:55:00,
2013-03-07 20:00:00,28.9,23.0,30.35,ESE,121,2.0,6.0,78,0.00,,,0.00,meteohub,2013-03-08 01:00:00,
2013-03-07 20:05:00,28.9,23.0,30.35,NE,39,2.0,5.0,78,0.00,,,0.00,meteohub,2013-03-08 01:05:00,
2013-03-07 20:10:00,28.9,23.0,30.35,ENE,69,3.0,8.0,78,0.00,,,0.00,meteohub,2013-03-08 01:10:00,
2013-03-07 20:15:00,28.8,22.8,30.35,ESE,104,0.0,8.0,78,0.00,,,0.00,meteohub,2013-03-08 01:15:00,
2013-03-07 20:21:00,28.8,22.8,30.35,ENE,67,7.0,8.0,78,0.00,,,0.00,meteohub,2013-03-08 01:21:00,
2013-03-07 20:26:00,28.8,22.8,30.35,NNE,29,5.0,8.0,78,0.00,,,0.00,meteohub,2013-03-08 01:26:00,
2013-03-07 20:31:00,28.6,22.6,30.35,NE,37,2.0,8.0,78,0.00,,,0.00,meteohub,2013-03-08 01:31:00,
2013-03-07 20:36:00,28.6,22.6,30.35,NE,49,5.0,8.0,78,0.00,,,0.00,meteohub,2013-03-08 01:36:00,
2013-03-07 20:41:00,28.6,22.6,30.35,ESE,103,4.0,10.0,78,0.00,,,0.00,meteohub,2013-03-08 01:41:00,
2013-03-07 20:46:00,28.4,22.5,30.35,ENE,74,4.0,10.0,78,0.00,,,0.00,meteohub,2013-03-08 01:46:00,
2013-03-07 20:51:00,28.4,22.5,30.34,East,86,1.0,10.0,78,0.00,,,0.00,meteohub,2013-03-08 01:51:00,
2013-03-07 20:57:00,28.4,22.5,30.34,East,79,2.0,8.0,78,0.00,,,0.00,meteohub,2013-03-08 01:57:00,
2013-03-07 21:02:00,28.4,22.5,30.34,ENE,78,8.0,8.0,78,0.00,,,0.00,meteohub,2013-03-08 02:02:00,
2013-03-07 21:07:00,28.2,22.3,30.34,ENE,72,0.0,10.0,78,0.00,,,0.00,meteohub,2013-03-08 02:07:00,
2013-03-07 21:12:00,28.2,22.3,30.34,ENE,63,0.0,10.0,78,0.00,,,0.00,meteohub,2013-03-08 02:12:00,
2013-03-07 21:17:00,28.2,22.6,30.34,ESE,105,3.0,10.0,79,0.00,,,0.00,meteohub,2013-03-08 02:17:00,
2013-03-07 21:23:00,28.2,22.3,30.34,ENE,74,2.0,8.0,78,0.00,,,0.00,meteohub,2013-03-08 02:23:00,
2013-03-07 21:29:00,28.2,22.3,30.34,ENE,75,7.0,8.0,78,0.00,,,0.00,meteohub,2013-03-08 02:29:00,
2013-03-07 21:34:00,28.0,22.1,30.33,ESE,115,1.0,11.0,78,0.00,,,0.00,meteohub,2013-03-08 02:34:00,
2013-03-07 21:39:00,28.0,22.1,30.33,North,5,2.0,11.0,78,0.00,,,0.00,meteohub,2013-03-08 02:39:00,
2013-03-07 21:44:00,28.0,22.1,30.33,SSE,156,5.0,10.0,78,0.00,,,0.00,meteohub,2013-03-08 02:44:00,
2013-03-07 21:50:00,28.0,22.1,30.33,East,79,7.0,7.0,78,0.00,,,0.00,meteohub,2013-03-08 02:50:00,
2013-03-07 21:55:00,28.0,22.1,30.33,ENE,59,4.0,8.0,78,0.00,,,0.00,meteohub,2013-03-08 02:55:00,
2013-03-07 22:00:00,28.0,22.1,30.33,NE,50,3.0,9.0,78,0.00,,,0.00,meteohub,2013-03-08 03:00:00,
2013-03-07 22:05:00,27.9,21.9,30.33,ENE,58,2.0,9.0,78,0.00,,,0.00,meteohub,2013-03-08 03:05:00,
2013-03-07 22:10:00,27.9,21.9,30.33,ENE,62,3.0,8.0,78,0.00,,,0.00,meteohub,2013-03-08 03:10:00,
2013-03-07 22:15:00,27.9,21.9,30.33,ENE,68,4.0,7.0,78,0.00,,,0.00,meteohub,2013-03-08 03:15:00,
2013-03-07 22:22:00,27.9,21.9,30.33,SE,135,2.0,7.0,78,0.00,,,0.00,meteohub,2013-03-08 03:22:00,
2013-03-07 22:27:00,27.9,21.9,30.32,NE,54,5.0,5.0,78,0.00,,,0.00,meteohub,2013-03-08 03:27:00,
2013-03-07 22:32:00,27.9,22.3,30.33,ENE,64,0.0,7.0,79,0.00,,,0.00,meteohub,2013-03-08 03:32:00,
2013-03-07 22:37:00,27.7,22.1,30.33,ENE,70,1.0,7.0,79,0.00,,,0.00,meteohub,2013-03-08 03:37:00,
2013-03-07 22:43:00,27.7,22.1,30.33,NE,48,0.0,7.0,79,0.00,,,0.00,meteohub,2013-03-08 03:43:00,
2013-03-07 22:48:00,27.7,22.1,30.32,ENE,65,5.0,8.0,79,0.00,,,0.00,meteohub,2013-03-08 03:48:00,
2013-03-07 22:53:00,27.7,22.1,30.33,ENE,62,4.0,9.0,79,0.00,,,0.00,meteohub,2013-03-08 03:53:00,
2013-03-07 22:58:00,27.7,22.1,30.33,ENE,62,3.0,9.0,79,0.00,,,0.00,meteohub,2013-03-08 03:58:00,
2013-03-07 23:03:00,27.5,21.9,30.33,NE,53,3.0,6.0,79,0.00,,,0.00,meteohub,2013-03-08 04:03:00,
2013-03-07 23:09:00,27.5,21.9,30.33,NE,51,3.0,8.0,79,0.00,,,0.00,meteohub,2013-03-08 04:09:00,
2013-03-07 23:14:00,27.5,21.9,30.33,East,80,2.0,8.0,79,0.00,,,0.00,meteohub,2013-03-08 04:14:00,
2013-03-07 23:20:00,27.5,21.9,30.33,NNW,338,2.0,8.0,79,0.00,,,0.00,meteohub,2013-03-08 04:20:00,
2013-03-07 23:25:00,27.3,21.7,30.33,East,80,1.0,7.0,79,0.00,,,0.00,meteohub,2013-03-08 04:25:00,
2013-03-07 23:30:00,27.3,21.7,30.32,East,98,2.0,7.0,79,0.00,,,0.00,meteohub,2013-03-08 04:30:00,
2013-03-07 23:35:00,27.3,21.7,30.32,NE,45,2.0,7.0,79,0.00,,,0.00,meteohub,2013-03-08 04:35:00,
2013-03-07 23:40:00,27.3,21.7,30.33,ESE,105,4.0,13.0,79,0.00,,,0.00,meteohub,2013-03-08 04:40:00,
2013-03-07 23:46:00,27.3,21.7,30.33,ESE,114,5.0,13.0,79,0.00,,,0.00,meteohub,2013-03-08 04:46:00,
2013-03-07 23:51:00,27.3,21.7,30.33,ENE,61,3.0,13.0,79,0.00,,,0.00,meteohub,2013-03-08 04:51:00,
2013-03-07 23:56:00,27.1,21.6,30.33,ESE,121,4.0,11.0,79,0.00,,,0.00,meteohub,2013-03-08 04:56:00,